Weather in Malaya Ryazan

Russia / Samara Oblast     53°13′22″N   49°18′48″E
temp.,
°C
wind,
m/s
gust,
m/s
humid.,
%
clouds,
%
prec.,
mm/h
press.,
hPa
HPBL,
m
26 february, fri
fri2601:00−13sse51095100 0.8 1017447
04:00−13sse5895100 1.4 1016326
07:00−14se379697 0.3 1015157
10:00−12se469596 0.4 1015251
13:00−10sse579396 0.1 1016433
16:00−10sse699399 0.1 1014480
19:00−10sse81295100 0.6 1011436
22:00−9sse91595100 2.9 1006480
27 february, sat
sat2701:00−6sse71196100 4.3 1000341
04:00−1sw21099100 5.1 999298
07:00+1wsw6129083 0.0 998390
10:00+1wsw6119790 0.1 998519
13:00+1wsw51010098 0.1 998458
16:000sw51010099 0.1 998520
19:000wsw4899100 0.9 997414
22:00−1w5798100 2.6 998337
28 february, sun
sun2801:00−5nnw51195100 1.1 999388
04:00−9nnw10169299 1.3 1001423
07:00−12nnw9169198 0.1 1003446
10:00−12nnw8139299 0.2 1006484
13:00−12nnw71192100 0.1 1008507
16:00−12nnw71091100 0.1 1010473
19:00−15nnw61293100 0.0 1012356
22:00−17n5109592 0.1 1015261
1 march, mon
mon101:00−18n4109790 0.0 1017210
04:00−20nnw499783 0.0 1019188
07:00−21n4109780 0.0 1021213
10:00−20n589687 0.0 1023267
13:00−17n579496 0.0 1023314
16:00−16n469388 0.0 1024268
19:00−19n239616 0.0 102420
22:00−21sw111008 0.0 102420
2 march, tue
tue201:00−20sw229927 0.0 102221
04:00−18ssw359858 0.0 1019102
07:00−15ssw51096100 0.1 1015276
10:00−11ssw61095100 1.4 1012395
13:00−5ssw61096100 0.9 1009495
16:00−1sw5898100 1.9 1006490
19:000nnw5996100 1.0 1004415
22:00−5wnw239393 1.0 100426